Location: Unspecified
(41.1637°N, 24.2901°E)
Time: 11:57:51
(UTC+01:00)

ISS - Visible Passes

Search period start: 15 December 2018 00:00
Search period end: 25 December 2018 00:00
Orbit: 401 x 408 km, 51.6° (Epoch: 16 December)

Date Brightness Start Highest point End Pass type
(mag) Time Alt. Az. Time Alt. Az. Time Alt. Az.
15 Dec -2.0 16:25:09 10° WNW 16:28:11 36° SW 16:31:12 10° SSE visible
22 Dec -0.3 05:30:02 10° SSE 05:31:20 12° SE 05:32:38 10° ESE visible
23 Dec -3.0 06:11:57 10° SW 06:15:09 55° SE 06:18:23 10° ENE visible
24 Dec -1.7 05:20:08 10° SSW 05:22:59 28° SE 05:25:52 10° ENE visible
